THY2KT LTCD-LTFM

Flight info

Callsign THY2KT
Flight time 1h 29m
Altitude 28000
Route EZN A4 OTSOV/N0448F360 UA4 TIMOP UT97 KANQO
Aircraft A320/M-SDE3FGHIRWY/LB1

Departure

Time 2026-05-06 11:04
Airport Erzincan Airport (LTCD)

Arrival

Time 2026-05-06 12:34
Airport İstanbul Airport (LTFM)
Time Latitude Longitude Altitude Speed Heading
2026-05-06 10:38 39.71640 39.52165 3790 ft 0 kts 21°
2026-05-06 10:53 39.71635 39.52162 3792 ft 2 kts 21°
2026-05-06 10:54 39.71621 39.52155 3794 ft 2 kts 21°
2026-05-06 10:54 39.71603 39.52150 3795 ft 3 kts 349°
2026-05-06 10:54 39.71587 39.52158 3794 ft 3 kts 311°
2026-05-06 10:54 39.71578 39.52178 3793 ft 3 kts 274°
2026-05-06 10:55 39.71580 39.52201 3794 ft 3 kts 238°
2026-05-06 10:55 39.71591 39.52217 3793 ft 2 kts 210°
2026-05-06 10:55 39.71607 39.52226 3794 ft 0 kts 203°
2026-05-06 11:00 39.71603 39.52224 3795 ft 3 kts 206°
2026-05-06 11:00 39.71566 39.52183 3795 ft 11 kts 241°
2026-05-06 11:00 39.71503 39.52101 3793 ft 14 kts 207°
2026-05-06 11:00 39.71486 39.51993 3793 ft 14 kts 295°
2026-05-06 11:01 39.71523 39.51875 3793 ft 15 kts 288°
2026-05-06 11:01 39.71563 39.51744 3793 ft 17 kts 287°
2026-05-06 11:01 39.71614 39.51566 3794 ft 23 kts 291°
2026-05-06 11:01 39.71672 39.51368 3793 ft 24 kts 291°
2026-05-06 11:02 39.71716 39.51173 3793 ft 19 kts 250°
2026-05-06 11:02 39.71649 39.51113 3792 ft 2 kts 199°
2026-05-06 11:02 39.71633 39.51106 3792 ft 3 kts 199°
2026-05-06 11:02 39.71608 39.51099 3792 ft 4 kts 182°
2026-05-06 11:03 39.71580 39.51110 3794 ft 4 kts 152°
2026-05-06 11:03 39.71561 39.51140 3793 ft 4 kts 114°
2026-05-06 11:03 39.71546 39.51195 3793 ft 19 kts 110°
2026-05-06 11:03 39.71416 39.51641 3792 ft 84 kts 110°
2026-05-06 11:04 39.71145 39.52565 3796 ft 132 kts 112°
2026-05-06 11:04 39.70782 39.53836 3826 ft 164 kts 110°
2026-05-06 11:04 39.70301 39.55189 4288 ft 164 kts 116°
2026-05-06 11:04 39.69866 39.56582 4762 ft 171 kts 109°
2026-05-06 11:05 39.69502 39.58094 4961 ft 181 kts 108°
2026-05-06 11:05 39.69122 39.59721 5127 ft 197 kts 109°
2026-05-06 11:05 39.68699 39.61508 5435 ft 215 kts 109°
2026-05-06 11:05 39.68243 39.63400 5871 ft 221 kts 109°
2026-05-06 11:06 39.67771 39.65306 6410 ft 223 kts 108°
2026-05-06 11:06 39.67289 39.67222 7144 ft 225 kts 109°
2026-05-06 11:06 39.66792 39.69158 7912 ft 226 kts 110°
2026-05-06 11:06 39.66453 39.70465 8375 ft 226 kts 111°
2026-05-06 11:07 39.65952 39.72386 9040 ft 229 kts 111°
2026-05-06 11:07 39.65440 39.74353 9708 ft 231 kts 111°
2026-05-06 11:07 39.64867 39.76308 10324 ft 233 kts 124°
2026-05-06 11:07 39.63808 39.77853 11010 ft 229 kts 147°
2026-05-06 11:08 39.62388 39.78735 11710 ft 227 kts 168°
2026-05-06 11:08 39.60820 39.78864 12335 ft 228 kts 188°
2026-05-06 11:08 39.59316 39.78202 12982 ft 232 kts 210°
2026-05-06 11:08 39.58101 39.76812 13629 ft 237 kts 232°
2026-05-06 11:09 39.57388 39.74872 14228 ft 244 kts 254°
2026-05-06 11:09 39.57343 39.72648 14777 ft 253 kts 278°
2026-05-06 11:09 39.58048 39.70525 15224 ft 263 kts 305°
2026-05-06 11:09 39.59299 39.68753 15728 ft 269 kts 310°
2026-05-06 11:10 39.60601 39.66982 16309 ft 272 kts 310°
2026-05-06 11:10 39.61905 39.65194 16907 ft 274 kts 309°
2026-05-06 11:10 39.63210 39.63394 17506 ft 275 kts 309°
2026-05-06 11:10 39.64529 39.61574 18084 ft 277 kts 310°
2026-05-06 11:11 39.65855 39.59745 18606 ft 280 kts 310°
2026-05-06 11:11 39.67193 39.57898 19088 ft 281 kts 309°
2026-05-06 11:11 39.68530 39.56048 19592 ft 283 kts 309°
2026-05-06 11:11 39.69879 39.54179 20091 ft 285 kts 309°
2026-05-06 11:12 39.71075 39.52151 20567 ft 282 kts 294°
2026-05-06 11:12 39.71949 39.49810 20738 ft 295 kts 290°
2026-05-06 11:12 39.72834 39.47322 20876 ft 311 kts 290°
2026-05-06 11:12 39.73760 39.44712 21064 ft 327 kts 291°
2026-05-06 11:13 39.74739 39.41965 21227 ft 343 kts 291°
2026-05-06 11:13 39.75766 39.39091 21359 ft 358 kts 291°
2026-05-06 11:13 39.76839 39.36097 21494 ft 372 kts 291°
2026-05-06 11:13 39.77958 39.32981 21652 ft 385 kts 291°
2026-05-06 11:14 39.79100 39.29802 22056 ft 391 kts 291°
2026-05-06 11:14 39.80254 39.26585 22538 ft 394 kts 291°
2026-05-06 11:14 39.81413 39.23354 23042 ft 396 kts 291°
2026-05-06 11:14 39.82566 39.20137 23577 ft 398 kts 291°
2026-05-06 11:15 39.83752 39.16815 24019 ft 401 kts 291°
2026-05-06 11:15 39.84926 39.13520 24429 ft 403 kts 291°
2026-05-06 11:15 39.86089 39.10244 24823 ft 405 kts 290°
2026-05-06 11:15 39.87273 39.06903 25212 ft 407 kts 290°
2026-05-06 11:16 39.88463 39.03546 25599 ft 410 kts 290°
2026-05-06 11:16 39.89663 39.00166 25979 ft 413 kts 290°
2026-05-06 11:16 39.90869 38.96769 26359 ft 415 kts 290°
2026-05-06 11:16 39.92064 38.93336 26721 ft 416 kts 287°
2026-05-06 11:17 39.92931 38.89765 27096 ft 413 kts 278°
2026-05-06 11:17 39.93343 38.86080 27492 ft 410 kts 269°
2026-05-06 11:17 39.93307 38.82377 27870 ft 408 kts 261°
2026-05-06 11:17 39.93053 38.78682 28043 ft 411 kts 261°
2026-05-06 11:18 39.92797 38.74932 28069 ft 421 kts 261°
2026-05-06 11:18 39.92269 38.67179 28064 ft 438 kts 261°
2026-05-06 11:19 39.91724 38.59142 28066 ft 451 kts 262°
2026-05-06 11:19 39.91175 38.50972 28068 ft 453 kts 262°
2026-05-06 11:20 39.90612 38.42780 28071 ft 454 kts 262°
2026-05-06 11:20 39.90041 38.34595 28072 ft 454 kts 262°
2026-05-06 11:21 39.89461 38.26394 28075 ft 455 kts 262°
2026-05-06 11:21 39.88876 38.18189 28085 ft 456 kts 262°
2026-05-06 11:22 39.88279 38.09968 28083 ft 457 kts 262°
2026-05-06 11:22 39.87679 38.01735 28086 ft 458 kts 262°
2026-05-06 11:23 39.87071 37.93482 28090 ft 458 kts 262°
2026-05-06 11:23 39.86467 37.85212 28091 ft 460 kts 262°
2026-05-06 11:24 39.85850 37.76925 28090 ft 460 kts 262°
2026-05-06 11:24 39.85226 37.68625 28089 ft 461 kts 262°
2026-05-06 11:25 39.84600 37.60308 28089 ft 461 kts 262°
2026-05-06 11:25 39.83974 37.52003 28085 ft 462 kts 263°
2026-05-06 11:26 39.83332 37.43684 28085 ft 462 kts 263°
2026-05-06 11:26 39.82689 37.35413 28084 ft 462 kts 263°
2026-05-06 11:27 39.82024 37.27098 28093 ft 463 kts 263°
2026-05-06 11:27 39.81347 37.18717 28103 ft 463 kts 263°
2026-05-06 11:28 39.80677 37.10445 28116 ft 463 kts 263°
2026-05-06 11:28 39.79995 37.02126 28123 ft 463 kts 263°
2026-05-06 11:29 39.79304 36.93800 28123 ft 463 kts 263°
2026-05-06 11:29 39.79474 36.85450 28114 ft 465 kts 279°
2026-05-06 11:30 39.80624 36.77186 28115 ft 465 kts 279°
2026-05-06 11:30 39.81741 36.68895 28110 ft 465 kts 279°
2026-05-06 11:31 39.82846 36.60614 28104 ft 464 kts 279°
2026-05-06 11:31 39.83952 36.52354 28089 ft 464 kts 279°
2026-05-06 11:32 39.85059 36.44084 28085 ft 464 kts 279°
2026-05-06 11:32 39.86155 36.35817 28088 ft 463 kts 280°
2026-05-06 11:33 39.87321 36.27562 28084 ft 463 kts 281°
2026-05-06 11:33 39.88510 36.19311 28074 ft 464 kts 281°
2026-05-06 11:34 39.89609 36.11021 28073 ft 465 kts 280°
2026-05-06 11:34 39.90677 36.02722 28076 ft 465 kts 280°
2026-05-06 11:35 39.91739 35.94434 28076 ft 464 kts 281°
2026-05-06 11:35 39.92819 35.86151 28071 ft 463 kts 281°
2026-05-06 11:36 39.93900 35.77887 28064 ft 462 kts 281°
2026-05-06 11:36 39.94966 35.69629 28059 ft 462 kts 281°
2026-05-06 11:37 39.96013 35.61381 28067 ft 461 kts 281°
2026-05-06 11:37 39.97056 35.53141 28052 ft 460 kts 281°
2026-05-06 11:38 39.98088 35.44958 28066 ft 460 kts 281°
2026-05-06 11:38 39.99150 35.36745 28062 ft 458 kts 285°
2026-05-06 11:39 40.01229 35.28880 28058 ft 456 kts 292°
2026-05-06 11:39 40.03398 35.21176 28065 ft 455 kts 292°
2026-05-06 11:40 40.05556 35.13437 28071 ft 454 kts 292°
2026-05-06 11:40 40.07724 35.05646 28069 ft 453 kts 292°
2026-05-06 11:41 40.09855 34.97961 28069 ft 453 kts 292°
2026-05-06 11:41 40.12001 34.90238 28078 ft 452 kts 292°
2026-05-06 11:42 40.14140 34.82523 28076 ft 451 kts 292°
2026-05-06 11:42 40.16261 34.74802 28076 ft 451 kts 292°
2026-05-06 11:43 40.18376 34.67101 28082 ft 450 kts 292°
2026-05-06 11:43 40.20484 34.59396 28087 ft 449 kts 292°
2026-05-06 11:44 40.23631 34.47860 28079 ft 448 kts 292°
2026-05-06 11:44 40.25712 34.40197 28083 ft 447 kts 292°
2026-05-06 11:45 40.27782 34.32554 28120 ft 441 kts 292°
2026-05-06 11:45 40.29825 34.24998 28100 ft 440 kts 292°
2026-05-06 11:46 40.31860 34.17437 28093 ft 440 kts 292°
2026-05-06 11:46 40.33893 34.09862 28092 ft 440 kts 292°
2026-05-06 11:47 40.35916 34.02297 28093 ft 440 kts 292°
2026-05-06 11:47 40.37932 33.94735 28101 ft 440 kts 292°
2026-05-06 11:48 40.39941 33.87160 28107 ft 440 kts 292°
2026-05-06 11:48 40.41956 33.79577 28107 ft 440 kts 292°
2026-05-06 11:49 40.43974 33.72003 28097 ft 439 kts 295°
2026-05-06 11:49 40.45362 33.68467 28085 ft 434 kts 306°
2026-05-06 11:49 40.47038 33.65220 28084 ft 435 kts 306°
2026-05-06 11:50 40.50439 33.58658 28086 ft 434 kts 306°
2026-05-06 11:50 40.53830 33.52073 28089 ft 435 kts 306°
2026-05-06 11:51 40.56665 33.46545 28074 ft 435 kts 306°
2026-05-06 11:51 40.60052 33.39929 28076 ft 436 kts 306°
2026-05-06 11:52 40.63439 33.33306 28071 ft 437 kts 306°
2026-05-06 11:52 40.66818 33.26704 28073 ft 437 kts 306°
2026-05-06 11:53 40.70203 33.20048 28066 ft 437 kts 306°
2026-05-06 11:53 40.73604 33.13333 28061 ft 438 kts 305°
2026-05-06 11:54 40.76417 33.06218 28054 ft 441 kts 299°
2026-05-06 11:54 40.79170 32.98920 28053 ft 442 kts 299°
2026-05-06 11:55 40.81905 32.91650 28058 ft 442 kts 299°
2026-05-06 11:55 40.84631 32.84386 28055 ft 442 kts 299°
2026-05-06 11:56 40.87343 32.77141 28052 ft 443 kts 299°
2026-05-06 11:56 40.90072 32.69834 28054 ft 443 kts 299°
2026-05-06 11:57 40.92797 32.62520 28056 ft 444 kts 298°
2026-05-06 11:57 40.95527 32.55182 28055 ft 444 kts 298°
2026-05-06 11:58 40.98246 32.47826 28054 ft 446 kts 298°
2026-05-06 11:58 41.00968 32.40456 28070 ft 445 kts 298°
2026-05-06 11:59 41.03683 32.33094 28077 ft 445 kts 298°
2026-05-06 11:59 41.06401 32.25708 28077 ft 446 kts 298°
2026-05-06 12:00 41.09118 32.18312 28085 ft 446 kts 298°
2026-05-06 12:00 41.11828 32.10901 28083 ft 446 kts 298°
2026-05-06 12:01 41.13596 32.02999 28082 ft 454 kts 279°
2026-05-06 12:01 41.14211 31.94703 28081 ft 455 kts 279°
2026-05-06 12:02 41.14831 31.86351 28096 ft 455 kts 279°
2026-05-06 12:02 41.15447 31.77984 28101 ft 455 kts 279°
2026-05-06 12:03 41.16063 31.69629 28097 ft 456 kts 279°
2026-05-06 12:03 41.16681 31.61247 28101 ft 456 kts 279°
2026-05-06 12:04 41.17282 31.52859 28105 ft 457 kts 278°
2026-05-06 12:04 41.17876 31.44474 28105 ft 457 kts 278°
2026-05-06 12:05 41.18464 31.36070 28108 ft 457 kts 278°
2026-05-06 12:05 41.19053 31.27673 28109 ft 457 kts 278°
2026-05-06 12:06 41.19640 31.19220 28106 ft 457 kts 278°
2026-05-06 12:06 41.20209 31.10855 28104 ft 458 kts 278°
2026-05-06 12:07 41.20778 31.02369 28113 ft 459 kts 278°
2026-05-06 12:07 41.21340 30.93949 28115 ft 455 kts 278°
2026-05-06 12:08 41.21601 30.89906 28120 ft 434 kts 277°
2026-05-06 12:08 41.21848 30.85955 28120 ft 413 kts 278°
2026-05-06 12:08 41.22078 30.82285 28119 ft 396 kts 278°
2026-05-06 12:08 41.22310 30.78704 28120 ft 387 kts 279°
2026-05-06 12:09 41.22826 30.75210 28116 ft 387 kts 290°
2026-05-06 12:09 41.23813 30.71844 28032 ft 393 kts 295°
2026-05-06 12:09 41.24867 30.68534 27900 ft 385 kts 295°
2026-05-06 12:09 41.25875 30.65290 27747 ft 373 kts 295°
2026-05-06 12:10 41.26844 30.62128 27453 ft 367 kts 294°
2026-05-06 12:10 41.27806 30.58995 27060 ft 364 kts 295°
2026-05-06 12:10 41.28753 30.55885 26642 ft 363 kts 292°
2026-05-06 12:10 41.29494 30.52681 26220 ft 362 kts 289°
2026-05-06 12:11 41.30196 30.49476 25799 ft 360 kts 289°
2026-05-06 12:11 41.30895 30.46293 25379 ft 358 kts 289°
2026-05-06 12:11 41.31592 30.43122 24948 ft 356 kts 289°
2026-05-06 12:11 41.32283 30.39964 24523 ft 355 kts 289°
2026-05-06 12:12 41.32949 30.36808 24098 ft 354 kts 284°
2026-05-06 12:12 41.33090 30.33547 23688 ft 356 kts 265°
2026-05-06 12:12 41.32427 30.30362 23173 ft 359 kts 250°
2026-05-06 12:12 41.31476 30.27305 22933 ft 354 kts 250°
2026-05-06 12:13 41.30513 30.24237 22932 ft 361 kts 250°
2026-05-06 12:13 41.29544 30.21156 22932 ft 362 kts 250°
2026-05-06 12:13 41.28574 30.18071 22932 ft 362 kts 250°
2026-05-06 12:13 41.27605 30.14982 22928 ft 361 kts 250°
2026-05-06 12:14 41.26642 30.11903 22703 ft 359 kts 250°
2026-05-06 12:14 41.25688 30.08847 22252 ft 357 kts 250°
2026-05-06 12:14 41.24740 30.05815 21795 ft 354 kts 250°
2026-05-06 12:14 41.23796 30.02804 21341 ft 352 kts 250°
2026-05-06 12:15 41.22856 29.99823 20910 ft 349 kts 250°
2026-05-06 12:15 41.21917 29.96855 20486 ft 347 kts 250°
2026-05-06 12:15 41.20986 29.93913 20064 ft 345 kts 250°
2026-05-06 12:15 41.20058 29.90984 19642 ft 343 kts 250°
2026-05-06 12:16 41.19141 29.88083 19230 ft 340 kts 250°
2026-05-06 12:16 41.18226 29.85189 18826 ft 338 kts 250°
2026-05-06 12:16 41.17318 29.82319 18426 ft 336 kts 250°
2026-05-06 12:16 41.16415 29.79466 17980 ft 334 kts 250°
2026-05-06 12:17 41.15517 29.76639 17546 ft 333 kts 250°
2026-05-06 12:17 41.14738 29.74186 17185 ft 331 kts 250°
2026-05-06 12:17 41.13844 29.71371 16764 ft 329 kts 250°
2026-05-06 12:17 41.12967 29.68614 16358 ft 328 kts 250°
2026-05-06 12:18 41.12083 29.65839 15932 ft 326 kts 250°
2026-05-06 12:18 41.11211 29.63108 15527 ft 325 kts 250°
2026-05-06 12:18 41.10318 29.60316 15120 ft 323 kts 250°
2026-05-06 12:18 41.09454 29.57619 14719 ft 322 kts 250°
2026-05-06 12:19 41.08580 29.54887 14318 ft 321 kts 250°
2026-05-06 12:19 41.07710 29.52172 13947 ft 320 kts 250°
2026-05-06 12:19 41.06842 29.49462 13542 ft 318 kts 250°
2026-05-06 12:19 41.05982 29.46782 13158 ft 316 kts 250°
2026-05-06 12:20 41.05125 29.44115 12766 ft 313 kts 250°
2026-05-06 12:20 41.04272 29.41459 12386 ft 312 kts 250°
2026-05-06 12:20 41.03431 29.38837 12072 ft 307 kts 250°
2026-05-06 12:20 41.02604 29.36265 11813 ft 301 kts 250°
2026-05-06 12:21 41.01788 29.33731 11495 ft 298 kts 250°
2026-05-06 12:21 41.00978 29.31219 11156 ft 296 kts 250°
2026-05-06 12:21 41.00170 29.28718 10823 ft 295 kts 250°
2026-05-06 12:21 40.99360 29.26220 10518 ft 293 kts 250°
2026-05-06 12:22 40.98561 29.23755 10209 ft 291 kts 250°
2026-05-06 12:22 40.97769 29.21307 9881 ft 290 kts 250°
2026-05-06 12:22 40.96976 29.18862 9546 ft 288 kts 250°
2026-05-06 12:22 40.96193 29.16450 9178 ft 285 kts 249°
2026-05-06 12:23 40.95408 29.14034 8864 ft 285 kts 250°
2026-05-06 12:23 40.94630 29.11641 8541 ft 283 kts 249°
2026-05-06 12:23 40.93850 29.09253 8228 ft 281 kts 249°
2026-05-06 12:23 40.93091 29.06923 7875 ft 280 kts 249°
2026-05-06 12:24 40.92322 29.04564 7714 ft 271 kts 249°
2026-05-06 12:24 40.91606 29.02307 7580 ft 261 kts 254°
2026-05-06 12:24 40.91288 29.00036 7464 ft 248 kts 271°
2026-05-06 12:24 40.91419 28.97821 7285 ft 239 kts 279°
2026-05-06 12:25 40.91622 28.95623 6972 ft 238 kts 279°
2026-05-06 12:25 40.91814 28.93450 6661 ft 237 kts 278°
2026-05-06 12:25 40.92002 28.91288 6347 ft 236 kts 278°
2026-05-06 12:25 40.92186 28.89166 6015 ft 235 kts 278°
2026-05-06 12:26 40.92371 28.87024 5682 ft 234 kts 278°
2026-05-06 12:26 40.92559 28.84868 5364 ft 232 kts 278°
2026-05-06 12:26 40.92746 28.82749 5034 ft 232 kts 279°
2026-05-06 12:26 40.93134 28.80739 4712 ft 227 kts 297°
2026-05-06 12:27 40.94024 28.79015 4371 ft 225 kts 316°
2026-05-06 12:27 40.95265 28.77816 4048 ft 224 kts 331°
2026-05-06 12:27 40.96626 28.76776 4007 ft 225 kts 333°
2026-05-06 12:27 40.98063 28.76208 4004 ft 209 kts 357°
2026-05-06 12:28 40.99512 28.76178 4008 ft 209 kts 359°
2026-05-06 12:28 41.00932 28.76149 4010 ft 199 kts 358°
2026-05-06 12:28 41.02264 28.76122 4024 ft 188 kts 358°
2026-05-06 12:28 41.03525 28.76098 4042 ft 178 kts 359°
2026-05-06 12:29 41.04723 28.76076 3999 ft 168 kts 359°
2026-05-06 12:29 41.05868 28.76055 3977 ft 162 kts 358°
2026-05-06 12:29 41.07000 28.76033 3951 ft 163 kts 358°
2026-05-06 12:29 41.08128 28.76012 3843 ft 162 kts 358°
2026-05-06 12:30 41.09254 28.75991 3641 ft 162 kts 358°
2026-05-06 12:30 41.10382 28.75970 3436 ft 161 kts 357°
2026-05-06 12:30 41.11512 28.75948 3217 ft 162 kts 357°
2026-05-06 12:30 41.12625 28.75928 3031 ft 163 kts 357°
2026-05-06 12:31 41.13767 28.75907 2790 ft 162 kts 358°
2026-05-06 12:31 41.14901 28.75885 2579 ft 162 kts 358°
2026-05-06 12:31 41.16030 28.75863 2365 ft 162 kts 358°
2026-05-06 12:31 41.17160 28.75842 2152 ft 163 kts 358°
2026-05-06 12:32 41.18283 28.75820 1935 ft 161 kts 359°
2026-05-06 12:32 41.19396 28.75799 1723 ft 159 kts 359°
2026-05-06 12:32 41.20506 28.75778 1500 ft 158 kts 359°
2026-05-06 12:32 41.21576 28.75758 1291 ft 146 kts 360°
2026-05-06 12:33 41.22564 28.75739 1091 ft 140 kts
2026-05-06 12:33 41.23531 28.75720 897 ft 138 kts
2026-05-06 12:33 41.24497 28.75703 687 ft 139 kts
2026-05-06 12:33 41.25463 28.75682 528 ft 138 kts
2026-05-06 12:34 41.26421 28.75658 366 ft 138 kts
2026-05-06 12:34 41.27342 28.75653 334 ft 106 kts
2026-05-06 12:34 41.27808 28.75643 331 ft 46 kts 356°
2026-05-06 12:34 41.28006 28.75596 334 ft 31 kts 338°
2026-05-06 12:35 41.28145 28.75470 332 ft 17 kts 316°
2026-05-06 12:35 41.28152 28.75382 330 ft 7 kts 240°
2026-05-06 12:35 41.28103 28.75350 334 ft 9 kts 188°
2026-05-06 12:35 41.28030 28.75347 331 ft 12 kts 180°
2026-05-06 12:36 41.27908 28.75351 331 ft 15 kts 179°
2026-05-06 12:36 41.27837 28.75353 332 ft 15 kts 179°
2026-05-06 12:36 41.27725 28.75357 334 ft 17 kts 179°
2026-05-06 12:36 41.27601 28.75358 333 ft 19 kts 179°
2026-05-06 12:37 41.27459 28.75363 330 ft 22 kts 179°
2026-05-06 12:37 41.27302 28.75366 334 ft 24 kts 179°
2026-05-06 12:37 41.27160 28.75369 332 ft 14 kts 178°
2026-05-06 12:37 41.27074 28.75324 330 ft 15 kts 242°
2026-05-06 12:38 41.26987 28.75261 334 ft 16 kts 179°
2026-05-06 12:38 41.26866 28.75263 333 ft 18 kts 179°
2026-05-06 12:38 41.26743 28.75267 333 ft 15 kts 178°
2026-05-06 12:38 41.26628 28.75269 333 ft 18 kts 179°
2026-05-06 12:39 41.26495 28.75272 332 ft 20 kts 176°
2026-05-06 12:39 41.26356 28.75277 330 ft 16 kts 177°
2026-05-06 12:39 41.26238 28.75279 333 ft 18 kts 179°
2026-05-06 12:39 41.26103 28.75282 332 ft 21 kts 179°
2026-05-06 12:40 41.25974 28.75284 331 ft 17 kts 182°
2026-05-06 12:40 41.25847 28.75289 330 ft 20 kts 178°
2026-05-06 12:40 41.25701 28.75291 334 ft 22 kts 184°
2026-05-06 12:40 41.25675 28.75183 333 ft 15 kts 327°
2026-05-06 12:41 41.25785 28.75169 330 ft 17 kts 351°
2026-05-06 12:41 41.25856 28.75146 331 ft 0 kts 345°
2026-05-06 12:41 41.25868 28.75142 331 ft 3 kts 345°
2026-05-06 12:41 41.25879 28.75138 333 ft 2 kts 346°
2026-05-06 12:42 41.25901 28.75132 334 ft 5 kts 347°
2026-05-06 12:42 41.25940 28.75117 331 ft 7 kts 337°
2026-05-06 12:42 41.25994 28.75085 334 ft 10 kts 336°
2026-05-06 12:42 41.26067 28.75049 333 ft 13 kts 342°
2026-05-06 12:43 41.26162 28.75008 332 ft 16 kts 342°
2026-05-06 12:43 41.26198 28.74949 331 ft 8 kts 258°
2026-05-06 12:43 41.26185 28.74900 333 ft 5 kts 250°
2026-05-06 12:43 41.26183 28.74890 333 ft 0 kts 250°